Погода в Бора-Бора

Французская Полинезия     16°29′56″S   151°44′17″W
темп.,
°C
ветер,
м/с
пор.,
м/с
влажн.,
%
обл.,
%
осадки,
мм/ч
давл.,
гПа
погр.,
м
1 марта, пн
пн123:00+28ю3374100 0.2 1012585
02:00+28ю2273100 0.3 1011689
05:00+28зюз1170100 0.0 1011417
08:00+28с1169100 0.1 1014287
11:00+28з2268100 0.0 1012558
14:00+28юз3369100 0.0 1011778
17:00+28ююз2270100 0.0 1010824
20:00+28ююв3373100 0.0 1013782
2 марта, вт
вт223:00+28ююв3374100 0.0 1013707
02:00+28ю337378 0.1 1012687
05:00+28ююв447729 0.4 1011675
08:00+28юв447663 0.6 1013625
11:00+28в447751 0.0 1012700
14:00+28всв227274 0.2 1011645
17:00+29св226873 0.1 1010706
20:00+29всв116737 0.1 1012795
3 марта, ср
ср323:00+28вюв11670 0.0 1012685
02:00+28ю22710 0.1 1010629
05:00+28ююв33762 0.2 1010596
08:00+28юв447725 0.3 1012709
11:00+28в337669 0.4 1012634
14:00+28в227467 0.7 1010637
17:00+28всв237264 3.4 1009605
20:00+28в347367 9.5 1011398
4 марта, чт
чт423:00+28ссв337389 0.8 1012711
02:00+28с337394 0.8 1010816
05:00+28с227178 0.0 1010719
08:00+28ссв236839 0.0 1012842
11:00+28ссв226615 0.0 1012962
14:00+28ссв226511 0.0 1010715
17:00+28с116472 0.0 1010845
20:00+28ю006486 0.0 1012823
5 марта, пт
пт523:00+28юв2267100 0.3 1013681
02:00+28в2370100 4.6 1011444
05:00+28ссв2369100 0.1 1011739
08:00+28ссв3370100 0.1 1013899
11:00+28ссв447278 0.1 1013791
14:00+28с337082 0.1 1011872
17:00+28с336866 0.0 1010837
20:00+28с226752 0.0 1012820